Zurück zum Katalog

METEOR 2-21

AktivWetterPO
NORAD 22782·PAYLOAD·🇷🇺 Russia

Gestartet Aug 31, 1993 von Plesetsk Cosmodrome

Loading…

Nächste Überflüge (nächste 24 Stunden)

TLE

AktuellSource: Space-Track

Epoche: Sep 14, 2026, 08:54 UTC

1 22782U 93055A   26257.37149951  .00000018  00000-0  26331-5 0  9993
2 22782  82.5479 223.9396 0021396 321.4037 202.5608 13.84032799668383

Verfolge METEOR 2-21 in Echtzeit mit AllMySat

Download on the App Store